Blountville, TN

7:54 PM EST on February 19, 2017 (GMT -0500)
Tri-Cities Regional Tennessee / Virginia

Weather History for KTRI - May, 2014

Change the Weather History Date:

Sunday, May 4, 2014

  Actual Average Record
Temperature  
Mean Temperature 62 °F 60 °F  
Max Temperature 82 °F 73 °F 88 °F (1938)
Min Temperature 42 °F 48 °F 30 °F (1986)
Degree Days  
Heating Degree Days 3 5  
Month to date heating degree days 30 23  
Since 1 July heating degree days 4360 4277  
Cooling Degree Days 0 1  
Month to date cooling degree days 0 4  
Year to date cooling degree days 21 15  
Growing Degree Days 12 (Base 50)    
Moisture  
Dew Point 42 °F    
Average Humidity 56    
Maximum Humidity 89    
Minimum Humidity 23    
Precipitation  
Precipitation 0.00 in 0.12 in 1.18 in (1948)
Month to date precipitation T 0.47  
Year to date precipitation 9.80 14.06  
Snow  
Snow 0.00 in 0.00 in - ()
Month to date snowfall 0.0 0.0  
Since 1 July snowfall 13.0 13.3  
Snow Depth 0.00 in    
Sea Level Pressure  
Sea Level Pressure 29.95 in    
Wind  
Wind Speed 7 mph (WSW)    
Max Wind Speed 24 mph    
Max Gust Speed 31 mph    
Visibility 10 miles    
Events      
T = Trace of Precipitation, MM = Missing Value Source: NWS Daily Summary

Daily Weather History Graph

Daily Weather History Graph

Search for Another Location

Airport or City:

Trip Planner

Search our weather history database for the weather conditions in past years. The results will help you decide how hot, cold, wet, or windy it might be!

Date:

Astronomy

May. 04, 2014 Rise Set
Actual Time 6:33 AM EDT 8:20 PM EDT
Civil Twilight 6:05 AM EDT 8:48 PM EDT
Nautical Twilight 5:31 AM EDT 9:22 PM EDT
Astronomical Twilight 4:55 AM EDT 9:58 PM EDT
Moon 10:56 AM EDT (5/4) 12:23 AM EDT (5/4)
Length of Visible Light 14h 43m
Length of Day
13h 47m
Waxing Crescent, 27% of the Moon is Illuminated
May 4
Waxing Crescent
May 6
First Quarter
May 14
Full
May 21
Last Quarter
May 28
New

Hourly Weather History & Observations

Time (EDT) Temp. Dew Point Humidity Pressure Visibility Wind Dir Wind Speed Gust Speed Precip Events Conditions
12:53 AM 51.1 °F 37.9 °F 61% 29.97 in 10.0 mi Calm Calm - N/A   Clear
1:53 AM 48.9 °F 39.0 °F 69% 29.98 in 10.0 mi Calm Calm - N/A   Clear
2:53 AM 48.0 °F 39.0 °F 71% 29.98 in 10.0 mi Calm Calm - N/A   Clear
3:53 AM 46.0 °F 39.9 °F 79% 29.99 in 10.0 mi Calm Calm - N/A   Clear
4:53 AM 44.1 °F 39.0 °F 82% 29.99 in 10.0 mi Calm Calm - N/A   Clear
5:53 AM 42.1 °F 39.0 °F 89% 30.00 in 10.0 mi Calm Calm - N/A   Clear
6:53 AM 42.1 °F 39.0 °F 89% 30.01 in 10.0 mi Calm Calm - N/A   Scattered Clouds
7:53 AM 48.9 °F 42.1 °F 77% 30.02 in 10.0 mi Calm Calm - N/A   Clear
8:53 AM 55.9 °F 42.1 °F 60% 30.02 in 10.0 mi Calm Calm - N/A   Clear
9:53 AM 63.0 °F 44.1 °F 50% 30.01 in 10.0 mi Calm Calm - N/A   Clear
10:53 AM 71.1 °F 43.0 °F 36% 29.99 in 10.0 mi WSW 11.5 mph - N/A   Clear
11:53 AM 73.0 °F 42.1 °F 33% 29.99 in 10.0 mi SW 17.3 mph 24.2 mph N/A   Clear
12:53 PM 75.9 °F 44.1 °F 32% 29.96 in 10.0 mi SW 17.3 mph - N/A   Clear
1:53 PM 79.0 °F 41.0 °F 26% 29.95 in 10.0 mi West 19.6 mph 26.5 mph N/A   Partly Cloudy
2:53 PM 81.0 °F 41.0 °F 24% 29.92 in 10.0 mi WSW 18.4 mph 26.5 mph N/A   Partly Cloudy
3:53 PM 82.0 °F 44.1 °F 26% 29.90 in 10.0 mi WSW 15.0 mph 24.2 mph N/A   Scattered Clouds
4:53 PM 81.0 °F 44.1 °F 27% 29.88 in 10.0 mi WSW 16.1 mph 25.3 mph N/A   Scattered Clouds
5:53 PM 81.0 °F 45.0 °F 28% 29.88 in 10.0 mi WSW 12.7 mph 21.9 mph N/A   Scattered Clouds
6:53 PM 81.0 °F 45.0 °F 28% 29.88 in 10.0 mi WSW 12.7 mph 18.4 mph N/A   Scattered Clouds
7:53 PM 79.0 °F 37.9 °F 23% 29.89 in 10.0 mi West 12.7 mph - N/A   Scattered Clouds
8:53 PM 73.0 °F 45.0 °F 37% 29.90 in 10.0 mi SW 5.8 mph - N/A   Scattered Clouds
9:53 PM 66.9 °F 46.9 °F 49% 29.90 in 10.0 mi Calm Calm - N/A   Partly Cloudy
10:53 PM 62.1 °F 46.9 °F 58% 29.91 in 10.0 mi Calm Calm - N/A   Clear
11:53 PM 61.0 °F 46.9 °F 60% 29.92 in 10.0 mi Calm Calm - N/A   Clear